Location: Antichan
(42.9728°N, 0.6667°E)
Time: 10:08:27
(UTC+00:00)

Cosmos 1470 Rocket - Pass Details

Date: 15 August 2020
Orbit: 603 x 634 km, 82.5° (Epoch: 18 September)

Event Time Altitude Azimuth Distance (km) Brightness Sun altitude
Exits shadow 20:00:39 - 167° (SSE) 2,383 6.2 -11.0°
Reaches altitude 10° 20:01:41 10° 163° (SSE) 1,984 5.7 -11.2°
Maximum altitude 20:05:50 43° 92° (E) 877 3.9 -11.8°
Drops below altitude 10° 20:09:58 10° 22° (NNE) 1,981 6.3 -12.5°
Sets 20:12:16 0° 15° (NNE) 2,886 7.2 -12.8°
